Location: *
(40.4000°N, 15.1200°E)
Time: 06:07:37
(UTC+00:00)

Cosmos 2058 - Pass Details

Date: 09 April 2020
Orbit: 563 x 582 km, 82.5° (Epoch: 27 May)

Event Time Altitude Azimuth Distance (km) Brightness Sun altitude
Rises 19:15:36 0° 2° (N) 2,772 6.8 -19.2°
Reaches altitude 10° 19:17:57 10° 12° (NNE) 1,873 5.7 -19.6°
Enters shadow 19:21:05 31° 58° (ENE) 1,001 3.9 -20.1°
